Other Public Products
Issued by NWS Grand Forks, ND

Home | Current Version | Previous Version | Graphics & Text | Print | Product List | Glossary On
Versions: 1 2 3 4 5 6 7 8 9 10 11 12 13 14 15 16 17 18 19 20 21 22 23 24 25 26 27 28 29 30 31 32 33 34 35 36 37 38 39 40 41 42 43 44 45 46 47 48 49 50
000
FPUS83 KFGF 191331
OPUFGF
PRAIRIE TO PINES WEATHER ROUNDUP
NATIONAL WEATHER SERVICE EASTERN NORTH DAKOTA/GRAND FORKS ND
700 AM CST SUN FEB 19 2017

 **SATELLITE DATA USED TO AUGMENT SKY COVER AT AUTOMATED STATIONS**
 *****  WEATHER ACROSS EASTERN NORTH DAKOTA  *****

CITY           SKY/WX    TMP DP  RH WIND       PRES   REMARKS
GRAND FORKS    MOCLDY    36  29  75 E9        29.79S
GRAND FORKS AF FAIR      33  31  92 E5        29.78F
GRAND CITY NWS NOT AVBL
BUXTON         NOT AVBL
DEVILS LAKE    CLOUDY    34  31  88 E16       29.71F WCI  24
FARGO          FAIR      42  37  82 SE16      29.77S
WAHPETON ARPT  FAIR      37  34  87 SE14      29.80S
$$

 *****  WEATHER ACROSS CENTRAL AND WESTERN NORTH DAKOTA  *****

CITY           SKY/WX    TMP DP  RH WIND       PRES   REMARKS
JAMESTOWN      MOCLDY    36  34  92 SE12      29.68F
BISMARCK       FAIR      35  32  88 NE8       29.61S
MINOT          CLOUDY    34  31  88 E8        29.64S
MINOT AFB      CLOUDY    33  30  91 E15       29.63S WCI  22
GARRISON         N/A     33  31  92 E12       29.59F WCI  24
WILLISTON      CLOUDY    32  30  92 E8        29.57S WCI  25
DICKINSON      FOG       28  27  96 E7        29.51F VSB 1/4 WCI  21
HETTINGER      FAIR      32  29  88 E5        29.53F
$$

 *****  OTHER OBSERVATIONS NORTHEAST NORTH DAKOTA  *****

CITY           SKY/WX    TMP DP  RH WIND       PRES   REMARKS
WALHALLA       NOT AVBL
LANGDON        NOT AVBL
CAVALIER       FAIR      32  30  93 E9        29.81F WCI  24
GRAFTON        FAIR      34  32  93 E12       29.82F
CANDO          NOT AVBL
FORT TOTTEN      N/A     35  34  96 E14       29.95S
ROLLA          PTSUNNY   32  32 100 E14       29.74F WCI  22
RUGBY            N/A     32  32 100 E23G29    29.66S WCI  19
 ***** THE ABOVE OBSERVATIONS ARE NON NWS ARE NOT QUALITY
        CONTROLLED AND MAY MIS-REPORT RAIN FOR SNOW...
$$

 *****  OTHER OBSERVATIONS SOUTHEAST NORTH DAKOTA *****

CITY           SKY/WX    TMP DP  RH WIND       PRES   REMARKS
COOPERSTOWN    FAIR      34  34 100 E14       29.73S FOG     WCI  24
VALLEY CITY    PTSUNNY   36  36 100 SE12      29.74F
OAKES          NOT AVBL
GWINNER        FAIR      36  36 100 E6        29.74S
SHEYENNE NWR     N/A     35  34  96 SE7       29.95S
BUFFALO        NOT AVBL
WYNDMERE         N/A     36  36 100 SE12        N/A
 ***** THE ABOVE OBSERVATIONS ARE NON NWS ARE NOT QUALITY
       CONTROLLED AND MAY MIS-REPORT RAIN FOR SNOW...
$$

  *****  WEATHER ACROSS NORTHERN MINNESOTA  *****

CITY           SKY/WX    TMP DP  RH WIND       PRES   REMARKS
FLAG ISLAND    MOCLDY    30  27  86 CALM      29.91R
WARROAD        MOCLDY    30  28  93 E7        29.90R WCI  23
ROSEAU         FAIR      34  28  80 E8        29.88R
HALLOCK        FAIR      36  30  80 E12       29.82F
THF RVR FALLS  FAIR      35  30  82 E16       29.84S
HALSTAD          N/A     36  34  91 SE12        N/A
FOSSTON        FAIR      34  32  93 E9        29.84S
BAUDETTE       CLOUDY    31  28  89 SE5       29.89R
WASKISH        FAIR      32  30  93 E6        29.90R
CROOKSTON      MOCLDY    36  34  93 E14       29.81S
$$
  *****  WEATHER ACROSS CENTRAL AND WEST MINNESOTA  *****

CITY           SKY/WX    TMP DP  RH WIND       PRES   REMARKS
BEMIDJI        FAIR      32  31  96 E6        29.88R
PARK RAPIDS    FAIR      36  30  79 E10       29.86S
WADENA         FAIR      34  34 100 E5        29.87R
DETROIT LAKES  FAIR      37  34  87 SE12      29.85R
MOORHEAD       FAIR      39  36  87 SE12      29.80S
FERGUS FALLS   FAIR      41  37  87 SE14      29.86S
ELBOW LAKE     FAIR      40  37  90 SE10      29.83S
MORRIS MN      FAIR      37  36  93 SE12      29.82F
STAPLES        FAIR      36  36 100 SE3       29.89R
WHEATON        FAIR      36  34  93 SE15      29.81F
$$
  *****  WEATHER ELSEWHERE ACROSS MINNESOTA  *****

CITY           SKY/WX    TMP DP  RH WIND       PRES   REMARKS
DULUTH         FAIR      30  29  96 E3        29.93R
INTRNTL FALLS  CLOUDY    30  27  88 E3        29.91R
ELY            FAIR      28  28 100 CALM      29.93R
CLOQUET        FAIR      28  27  93 CALM      29.94R
BRAINERD       FAIR      30  28  92 CALM      29.91R
HIBBING        FAIR      25  25 100 CALM      29.92R
ALEXANDRIA     FAIR      38  35  89 SE8       29.87R
SAINT CLOUD    FAIR      32  32 100 SE3       29.91R FOG
MINNEAPOLIS    FAIR      36  32  85 SE5       29.93S
$$

  *****  WEATHER ACROSS SOUTH DAKOTA  *****

CITY           SKY/WX    TMP DP  RH WIND       PRES   REMARKS
SIOUX FALLS    MOCLDY    40  35  83 SE8       29.80F
BROOKINGS      FAIR      38  34  85 SE14      29.78F
WATERTOWN      FAIR      40  35  83 SE16      29.76F
HURON          FAIR      38  34  85 SE10      29.71F
SISSETON         N/A     35  34  96 S7        29.77F
ABERDEEN       FAIR      41  33  73 S10       29.71R
MITCHELL       FAIR      39  34  82 SE12      29.73F
PIERRE         FAIR      39  32  76 E9        29.59F
MOBRIDGE       FAIR      38  31  76 SE9       29.58F
RAPID CITY     FAIR      38  29  70 E5        29.56R
$$

  *****  SOME WEATHER IN NEARBY STATES *****

CITY           SKY/WX    TMP DP  RH WIND       PRES   REMARKS
GLASGOW MT     FAIR      32  29  88 SE12      29.46F WCI  23
GREAT FALLS MT MOCLDY    43  30  60 S13       29.35S
CHEYENNE WY    FAIR      44  26  49 W16       29.66S
SCOTTSBLUFF NE FAIR      31  26  82 N6        29.65R
OMAHA NE       MOCLDY    41  35  79 S7        29.88R
DES MOINES IA  FAIR      42  32  67 SE5       29.94S
DAVENPORT IA   FAIR      31  29  92 CALM      30.00R
CHICAGO IL     FAIR      40  34  79 W3        30.00R
EAU CLAIRE WI  FAIR      26  26 100 CALM      29.97R FOG
LA CROSSE WI   FAIR      30  28  92 SE3       29.99R
$$

  *****  SOME NATIONAL WEATHER *****

CITY           SKY/WX    TMP DP  RH WIND       PRES   REMARKS
LA GUARDIA NY  PTSUNNY   56  35  45 W6        29.79R
RALEIGH NC     FAIR      48  43  82 CALM      29.93R
ATLANTA GA     CLOUDY    54  53  97 NW7       30.07R
NEW ORLEANS LA CLOUDY    60  60 100 NE3       30.04R FOG
OKLAHOMA CITY  CLOUDY    56  55  97 S13       29.87R FOG
ALBUQUERQUE NM CLOUDY    40  37  89 SE9       29.81F
SALT LAKE CITY LGT RAIN  48  39  71 S8        29.63R
LOS ANGELES CA MOCLDY    52  51  97 NE7       29.81R
BOISE ID       MOCLDY    42  37  82 CALM      29.55R
SEATTLE WA     FAIR      43  42  96 SE3       29.39F
$$

*** WEATHER ACROSS MANITOBA...SASKATCHEWAN AND ONTARIO ***
                ***ONTARIO***

CITY           SKY/WX    TMP DP  RH WIND       PRES   REMARKS
GERALDTON      CLOUDY    32  25  74 N12       29.90R WCI  23
THUNDER BAY    MOCLDY    30  27  86 W2        29.96R
SIOUX LOOKOUT  PTCLDY    21  19  93 CALM      29.93R
TORONTO        PTCLDY    39  32  75 W8        29.84R
BIG TROUT LK   CLOUDY    21  19  93 NE3       29.95R
PICKLE LAKE    CLOUDY    27  21  80 VRB2      29.91R
DRYDEN         CLEAR     27  25  93 NE3       29.90R
KENORA         MOCLDY    28  27  93 E3        29.90R
$$
                *** MANITOBA***

CITY           SKY/WX    TMP DP  RH WIND       PRES   REMARKS
BRANDON        CLOUDY    28  27  93 E17       29.79F WCI  16
DAUPHIN        MOCLDY    23  23 100 E7        29.86S WCI  15
ISLAND LAKE    FLURRIES  14  10  85 SW3       29.98R
PILOT MOUND      N/A     32  28  86 E18         N/A  WCI  20
THE PAS        CLOUDY    27  23  86 E8        29.92R WCI  18
THOMPSON       CLOUDY    18  16  93 CALM      29.96R
WINNIPEG       MOCLDY    30  27  86 E10       29.88R WCI  21
LYNN LAKE      CLOUDY    16  14  93 S3        29.92R
CHURCHILL      MOCLDY    -2  -4  92 SE7       30.06R WCI -16
GILLAM         FLURRIES  14   9  79 NE3       29.99R
$$
                ***SASKATCHEWAN***

CITY           SKY/WX    TMP DP  RH WIND       PRES   REMARKS
ESTEVAN        PTCLDY    30  28  93 E18G26    29.63F WCI  18
KINDERSLEY     CLOUDY    34  30  86 SE16G25   29.41S WCI  23
LLOYDMINSTER   MIX PCPN  32  30  93 SE28G39   29.43F WCI  18
PRINCE ALBERT  CLOUDY    28  25  86 E13       29.72F WCI  18
REGINA         CLOUDY    32  27  80 E18       29.62S WCI  20
YORKTON        CLOUDY    30  27  86 SE13G18   29.75F WC



USA.gov is the U.S. government's official web portal to all federal, state and local government web resources and services.